Weather History for KSHN - March, 2013

Change the Weather History Date:

Friday, March 22, 2013

  Actual Average Record
Temperature  
Mean Temperature 38 °F -  
Max Temperature 48 °F 56 °F 69 °F (1979)
Min Temperature 30 °F 37 °F 26 °F (2008)
Degree Days  
Heating Degree Days 27    
Moisture  
Dew Point 31 °F    
Average Humidity 80    
Maximum Humidity 96    
Minimum Humidity 49    
Precipitation  
Precipitation 0.00 in - - ()
Sea Level Pressure  
Sea Level Pressure 30.29 in    
Wind  
Wind Speed 6 mph (NW)    
Max Wind Speed 14 mph    
Max Gust Speed -    
Visibility 10 miles    
Events      
Averages and records for this station are not official NWS values.
T = Trace of Precipitation, MM = Missing Value Source: NWS Daily Summary

Daily Weather History Graph

Daily Weather History Graph

Search for Another Location

Airport or City:

Trip Planner

Search our weather history database for the weather conditions in past years. The results will help you decide how hot, cold, wet, or windy it might be!

Date:

Astronomy

Mar. 22, 2013 Rise Set
Actual Time 7:10 AM PDT 7:28 PM PDT
Civil Twilight 6:40 AM PDT 7:59 PM PDT
Nautical Twilight 6:04 AM PDT 8:35 PM PDT
Astronomical Twilight 5:27 AM PDT 9:12 PM PDT
Moon 2:45 PM PDT (3/22) 4:31 AM PDT (3/22)
Length of Visible Light 13h 18m
Length of Day
12h 17m
Waxing Gibbous, 78% of the Moon is Illuminated
Mar 22
Waxing Gibbous
Mar 27
Full
Apr 2
Last Quarter
Apr 10
New
Apr 18
First Quarter

Hourly Weather History & Observations

Time (PDT) Temp. Windchill Dew Point Humidity Pressure Visibility Wind Dir Wind Speed Gust Speed Precip Events Conditions
12:53 AM 33.1 °F 23.9 °F 30.9 °F 92% 30.22 in 10.0 mi WSW 12.7 mph - N/A   Clear
1:53 AM 33.1 °F 24.4 °F 30.9 °F 92% 30.22 in 10.0 mi WSW 11.5 mph - N/A   Clear
2:53 AM 33.1 °F 23.4 °F 30.0 °F 89% 30.23 in 10.0 mi WSW 13.8 mph - N/A   Clear
3:53 AM 32.0 °F 26.4 °F 30.0 °F 92% 30.23 in 10.0 mi West 5.8 mph - N/A   Clear
4:53 AM 32.0 °F 27.5 °F 30.0 °F 92% 30.24 in 10.0 mi WSW 4.6 mph - N/A   Clear
5:53 AM 30.9 °F 26.2 °F 28.9 °F 92% 30.25 in 10.0 mi West 4.6 mph - N/A   Scattered Clouds
6:53 AM 30.9 °F 25.2 °F 30.0 °F 96% 30.26 in 10.0 mi WNW 5.8 mph - N/A   Clear
7:39 AM 32.0 °F 25.6 °F 30.2 °F 93% 30.25 in 10.0 mi NW 6.9 mph - N/A   Scattered Clouds
7:53 AM 32.0 °F 27.5 °F 30.9 °F 96% 30.27 in 10.0 mi WNW 4.6 mph - N/A   Mostly Cloudy
8:46 AM 33.8 °F - 30.2 °F 87% 30.26 in - Calm Calm - N/A   Scattered Clouds
8:53 AM 34.0 °F - 32.0 °F 92% 30.29 in - Calm Calm - N/A   Partly Cloudy
9:09 AM 33.8 °F - 32.0 °F 93% 30.27 in - Calm Calm - N/A   Mostly Cloudy
9:23 AM 35.6 °F - 33.8 °F 93% 30.28 in 10.0 mi Calm Calm - N/A   Scattered Clouds
9:53 AM - - - N/A% 30.28 in 10.0 mi NE 5.8 mph - N/A   Mostly Cloudy
10:34 AM 37.4 °F 31.4 °F 33.8 °F 87% 30.29 in 10.0 mi North 8.1 mph - N/A   Mostly Cloudy
10:53 AM 37.9 °F 34.4 °F 33.1 °F 83% 30.31 in 10.0 mi Variable 4.6 mph - N/A   Mostly Cloudy
11:10 AM 39.2 °F 35.0 °F 33.8 °F 81% 30.29 in 10.0 mi NE 5.8 mph - N/A   Mostly Cloudy
11:28 AM 39.2 °F 35.9 °F 33.8 °F 81% 30.29 in 10.0 mi NE 4.6 mph - N/A   Scattered Clouds
11:53 AM 41.0 °F 37.1 °F 34.0 °F 76% 30.31 in 10.0 mi NNE 5.8 mph - N/A   Clear
12:26 PM 44.6 °F 43.1 °F 33.8 °F 66% 30.29 in 10.0 mi Variable 3.5 mph - N/A   Mostly Cloudy
12:46 PM 42.8 °F 39.3 °F 32.0 °F 66% 30.29 in 10.0 mi NE 5.8 mph - N/A   Scattered Clouds
12:53 PM 43.0 °F - 32.0 °F 65% 30.31 in 10.0 mi Calm Calm - N/A   Partly Cloudy
1:53 PM 46.0 °F 43.9 °F 30.0 °F 54% 30.30 in 10.0 mi East 4.6 mph - N/A   Scattered Clouds
2:53 PM 45.0 °F - 27.0 °F 49% 30.29 in 10.0 mi Calm Calm - N/A   Clear
3:53 PM 44.1 °F 39.0 °F 33.1 °F 65% 30.30 in 10.0 mi SSW 9.2 mph - 0.00 in   Scattered Clouds
4:53 PM 44.1 °F 40.8 °F 28.9 °F 55% 30.31 in 10.0 mi SSW 5.8 mph - N/A   Overcast
5:53 PM 43.0 °F 41.3 °F 28.9 °F 58% 30.31 in 10.0 mi South 3.5 mph - N/A   Mostly Cloudy
6:53 PM 43.0 °F - 28.9 °F 58% 30.32 in 10.0 mi Calm Calm - N/A   Partly Cloudy
7:53 PM 39.9 °F 37.8 °F 30.9 °F 70% 30.33 in 10.0 mi North 3.5 mph - N/A   Overcast
8:53 PM 37.0 °F 34.5 °F 33.1 °F 86% 30.36 in 10.0 mi NW 3.5 mph - N/A   Overcast
9:53 PM 37.9 °F 35.5 °F 34.0 °F 86% 30.34 in 10.0 mi North 3.5 mph - N/A   Overcast
10:53 PM 33.1 °F - 30.9 °F 92% 30.37 in 10.0 mi Calm Calm - N/A   Partly Cloudy
11:53 PM 32.0 °F - 30.2 °F 93% 30.36 in 10.0 mi Calm Calm - N/A   Clear